Time,TemperatureF,DewpointF,PressureIn,WindDirection,WindDirectionDegrees,WindSpeedMPH,WindSpeedGustMPH,Humidity,HourlyPrecipIn,Conditions,Clouds,dailyrainin,SolarRadiationWatts/m^2,SoftwareType,DateUTC
2013-09-08 00:02:00,-999.0,-99.9,-100.00,WNW,295,1.0,5.0,-999,-99.99,,,-99.99,0.000000,,2013-09-08 04:02:00,
2013-09-08 00:13:00,62.0,55.0,-100.00,SSE,148,1.0,4.0,77,0.00,,,0.00,0.000000,,2013-09-08 04:13:00,
2013-09-08 00:43:00,62.0,55.0,-100.00,SSE,148,1.0,4.0,77,0.00,,,0.00,0.000000,,2013-09-08 04:43:00,
2013-09-08 00:54:00,62.0,55.0,-100.00,SSE,148,1.0,4.0,77,0.00,,,0.00,0.000000,,2013-09-08 04:54:00,
2013-09-08 01:03:00,62.0,55.0,-100.00,SSE,148,1.0,4.0,77,0.00,,,0.00,0.000000,,2013-09-08 05:03:00,
2013-09-08 01:13:00,63.0,55.0,-100.00,WSW,239,2.0,5.0,74,0.00,,,0.00,0.000000,,2013-09-08 05:13:00,
2013-09-08 01:43:00,63.0,55.0,-100.00,WSW,239,2.0,5.0,74,0.00,,,0.00,0.000000,,2013-09-08 05:43:00,
2013-09-08 01:52:00,63.0,55.0,-100.00,WSW,239,2.0,5.0,74,0.00,,,0.00,0.000000,,2013-09-08 05:52:00,
2013-09-08 02:03:00,63.0,55.0,-100.00,WSW,239,2.0,5.0,74,0.00,,,0.00,0.000000,,2013-09-08 06:03:00,
2013-09-08 02:42:00,65.0,55.0,-100.00,South,183,3.0,6.0,70,0.00,,,0.00,0.000000,,2013-09-08 06:42:00,
2013-09-08 02:53:00,65.0,55.0,-100.00,South,183,3.0,6.0,70,0.00,,,0.00,0.000000,,2013-09-08 06:53:00,
2013-09-08 03:02:00,65.0,55.0,-100.00,South,183,3.0,6.0,70,0.00,,,0.00,0.000000,,2013-09-08 07:02:00,
2013-09-08 03:12:00,65.0,55.0,-100.00,South,183,3.0,6.0,70,0.00,,,0.00,0.000000,,2013-09-08 07:12:00,
2013-09-08 03:42:00,65.0,56.0,-100.00,NNW,340,2.0,5.0,74,0.00,,,0.00,0.000000,,2013-09-08 07:42:00,
2013-09-08 03:52:00,65.0,56.0,-100.00,NNW,340,2.0,5.0,74,0.00,,,0.00,0.000000,,2013-09-08 07:52:00,
2013-09-08 04:02:00,65.0,56.0,-100.00,NNW,340,2.0,5.0,74,0.00,,,0.00,0.000000,,2013-09-08 08:02:00,
2013-09-08 04:12:00,65.0,56.0,-100.00,NNW,340,2.0,5.0,74,0.00,,,0.00,0.000000,,2013-09-08 08:12:00,
2013-09-08 04:42:00,65.0,58.0,-100.00,North,9,2.0,4.0,77,0.00,,,0.00,0.000000,,2013-09-08 08:42:00,
2013-09-08 04:52:00,65.0,58.0,-100.00,North,9,2.0,4.0,77,0.00,,,0.00,0.000000,,2013-09-08 08:52:00,
2013-09-08 05:02:00,65.0,58.0,-100.00,North,9,2.0,4.0,77,0.00,,,0.00,0.000000,,2013-09-08 09:02:00,
2013-09-08 05:12:00,65.0,58.0,-100.00,North,9,2.0,4.0,77,0.00,,,0.00,0.000000,,2013-09-08 09:12:00,
2013-09-08 05:43:00,64.0,58.0,-100.00,East,92,1.0,5.0,80,0.00,,,0.00,0.000000,,2013-09-08 09:43:00,
2013-09-08 05:54:00,64.0,58.0,-100.00,East,92,1.0,5.0,80,0.00,,,0.00,0.000000,,2013-09-08 09:54:00,
2013-09-08 06:03:00,64.0,58.0,-100.00,East,92,1.0,5.0,80,0.00,,,0.00,0.000000,,2013-09-08 10:03:00,
2013-09-08 06:12:00,64.0,58.0,-100.00,East,92,1.0,5.0,80,0.00,,,0.00,0.000000,,2013-09-08 10:12:00,
2013-09-08 06:43:00,64.0,58.0,-100.00,South,183,1.0,5.0,80,0.00,,,0.00,0.000000,,2013-09-08 10:43:00,
2013-09-08 06:53:00,64.0,58.0,-100.00,South,183,1.0,5.0,80,0.00,,,0.00,0.000000,,2013-09-08 10:53:00,
2013-09-08 07:02:00,64.0,58.0,-100.00,South,183,1.0,5.0,80,0.00,,,0.00,0.000000,,2013-09-08 11:02:00,
2013-09-08 07:12:00,64.0,58.0,-100.00,South,183,1.0,5.0,80,0.00,,,0.00,0.000000,,2013-09-08 11:12:00,
2013-09-08 07:42:00,64.0,58.0,-100.00,SE,131,2.0,5.0,80,0.00,,,0.00,1.000000,,2013-09-08 11:42:00,
2013-09-08 07:52:00,64.0,58.0,-100.00,SE,131,2.0,5.0,80,0.00,,,0.00,1.000000,,2013-09-08 11:52:00,
2013-09-08 08:02:00,64.0,58.0,-100.00,SE,131,2.0,5.0,80,0.00,,,0.00,1.000000,,2013-09-08 12:02:00,
2013-09-08 08:12:00,64.0,58.0,-100.00,SE,131,2.0,5.0,80,0.00,,,0.00,1.000000,,2013-09-08 12:12:00,
2013-09-08 08:42:00,66.0,60.0,-100.00,SSE,159,2.0,4.0,81,0.00,,,0.00,62.000000,,2013-09-08 12:42:00,
2013-09-08 08:52:00,66.0,60.0,-100.00,SSE,159,2.0,4.0,81,0.00,,,0.00,62.000000,,2013-09-08 12:52:00,
2013-09-08 09:02:00,66.0,60.0,-100.00,SSE,159,2.0,4.0,81,0.00,,,0.00,62.000000,,2013-09-08 13:02:00,
2013-09-08 09:12:00,66.0,60.0,-100.00,SSE,159,2.0,4.0,81,0.00,,,0.00,62.000000,,2013-09-08 13:12:00,
2013-09-08 09:42:00,71.0,62.0,-100.00,South,171,4.0,6.0,73,0.00,,,0.00,216.000000,,2013-09-08 13:42:00,
2013-09-08 09:52:00,71.0,62.0,-100.00,South,171,4.0,6.0,73,0.00,,,0.00,216.000000,,2013-09-08 13:52:00,
2013-09-08 10:02:00,71.0,62.0,-100.00,South,171,4.0,6.0,73,0.00,,,0.00,216.000000,,2013-09-08 14:02:00,
2013-09-08 10:11:00,71.0,62.0,-100.00,South,171,4.0,6.0,73,0.00,,,0.00,216.000000,,2013-09-08 14:11:00,
2013-09-08 10:42:00,78.0,62.0,-100.00,SSW,201,4.0,6.0,59,0.00,,,0.00,397.000000,,2013-09-08 14:42:00,
2013-09-08 10:52:00,78.0,62.0,-100.00,SSW,201,4.0,6.0,59,0.00,,,0.00,397.000000,,2013-09-08 14:52:00,
2013-09-08 11:02:00,78.0,62.0,-100.00,SSW,201,4.0,6.0,59,0.00,,,0.00,397.000000,,2013-09-08 15:02:00,
2013-09-08 11:12:00,78.0,62.0,-100.00,SSW,201,4.0,6.0,59,0.00,,,0.00,397.000000,,2013-09-08 15:12:00,
2013-09-08 11:13:00,82.0,63.0,-100.00,NNW,327,4.0,10.0,52,0.00,,,0.00,547.000000,,2013-09-08 15:13:00,
2013-09-08 11:45:00,82.0,63.0,-100.00,NNW,327,4.0,10.0,52,0.00,,,0.00,547.000000,,2013-09-08 15:45:00,
2013-09-08 11:55:00,82.0,63.0,-100.00,NNW,327,4.0,10.0,52,0.00,,,0.00,547.000000,,2013-09-08 15:55:00,
2013-09-08 12:04:00,82.0,63.0,-100.00,NNW,327,4.0,10.0,52,0.00,,,0.00,547.000000,,2013-09-08 16:04:00,
2013-09-08 12:44:00,83.0,65.0,-100.00,NNW,345,5.0,9.0,55,0.00,,,0.00,602.000000,,2013-09-08 16:44:00,
2013-09-08 12:54:00,83.0,65.0,-100.00,NNW,345,5.0,9.0,55,0.00,,,0.00,602.000000,,2013-09-08 16:54:00,
2013-09-08 13:03:00,83.0,65.0,-100.00,NNW,345,5.0,9.0,55,0.00,,,0.00,602.000000,,2013-09-08 17:03:00,
2013-09-08 13:12:00,83.0,65.0,-100.00,NNW,345,5.0,9.0,55,0.00,,,0.00,602.000000,,2013-09-08 17:12:00,
2013-09-08 13:13:00,85.0,64.0,-100.00,NNW,344,7.0,11.0,50,0.00,,,0.00,744.000000,,2013-09-08 17:13:00,
2013-09-08 13:43:00,85.0,64.0,-100.00,NNW,344,7.0,11.0,50,0.00,,,0.00,744.000000,,2013-09-08 17:43:00,
2013-09-08 13:53:00,85.0,64.0,-100.00,NNW,344,7.0,11.0,50,0.00,,,0.00,744.000000,,2013-09-08 17:53:00,
2013-09-08 14:02:00,85.0,64.0,-100.00,NNW,344,7.0,11.0,50,0.00,,,0.00,744.000000,,2013-09-08 18:02:00,
2013-09-08 14:42:00,84.0,63.0,-100.00,NNW,331,6.0,14.0,49,0.00,,,0.00,590.000000,,2013-09-08 18:42:00,
2013-09-08 14:52:00,84.0,63.0,-100.00,NNW,331,6.0,14.0,49,0.00,,,0.00,590.000000,,2013-09-08 18:52:00,
2013-09-08 15:02:00,84.0,63.0,-100.00,NNW,331,6.0,14.0,49,0.00,,,0.00,590.000000,,2013-09-08 19:02:00,
2013-09-08 15:12:00,84.0,63.0,-100.00,NNW,331,6.0,14.0,49,0.00,,,0.00,590.000000,,2013-09-08 19:12:00,
2013-09-08 15:42:00,86.0,65.0,-100.00,NNW,329,7.0,13.0,50,0.00,,,0.00,465.000000,,2013-09-08 19:42:00,
2013-09-08 15:52:00,86.0,65.0,-100.00,NNW,329,7.0,13.0,50,0.00,,,0.00,465.000000,,2013-09-08 19:52:00,
2013-09-08 16:03:00,86.0,65.0,-100.00,NNW,329,7.0,13.0,50,0.00,,,0.00,465.000000,,2013-09-08 20:03:00,
2013-09-08 16:12:00,86.0,65.0,-100.00,NNW,329,7.0,13.0,50,0.00,,,0.00,465.000000,,2013-09-08 20:12:00,
2013-09-08 16:42:00,86.0,65.0,-100.00,NNE,17,5.0,10.0,50,0.00,,,0.00,426.000000,,2013-09-08 20:42:00,
2013-09-08 16:53:00,86.0,65.0,-100.00,NNE,17,5.0,10.0,50,0.00,,,0.00,426.000000,,2013-09-08 20:53:00,
2013-09-08 17:03:00,86.0,65.0,-100.00,NNE,17,5.0,10.0,50,0.00,,,0.00,426.000000,,2013-09-08 21:03:00,
2013-09-08 17:12:00,86.0,65.0,-100.00,NNE,17,5.0,10.0,50,0.00,,,0.00,426.000000,,2013-09-08 21:12:00,
2013-09-08 17:13:00,83.0,66.0,-100.00,North,2,6.0,15.0,57,0.00,,,0.00,212.000000,,2013-09-08 21:13:00,
2013-09-08 17:44:00,83.0,66.0,-100.00,North,2,6.0,15.0,57,0.00,,,0.00,212.000000,,2013-09-08 21:44:00,
2013-09-08 17:54:00,83.0,66.0,-100.00,North,2,6.0,15.0,57,0.00,,,0.00,212.000000,,2013-09-08 21:54:00,
2013-09-08 18:04:00,83.0,66.0,-100.00,North,2,6.0,15.0,57,0.00,,,0.00,212.000000,,2013-09-08 22:04:00,
2013-09-08 18:13:00,82.0,64.0,-100.00,NNW,331,6.0,16.0,55,0.00,,,0.00,265.000000,,2013-09-08 22:13:00,
2013-09-08 18:44:00,82.0,64.0,-100.00,NNW,331,6.0,16.0,55,0.00,,,0.00,265.000000,,2013-09-08 22:44:00,
2013-09-08 18:53:00,82.0,64.0,-100.00,NNW,331,6.0,16.0,55,0.00,,,0.00,265.000000,,2013-09-08 22:53:00,
2013-09-08 19:04:00,82.0,64.0,-100.00,NNW,331,6.0,16.0,55,0.00,,,0.00,265.000000,,2013-09-08 23:04:00,
2013-09-08 19:42:00,79.0,62.0,-100.00,North,1,4.0,12.0,57,0.00,,,0.00,91.000000,,2013-09-08 23:42:00,
2013-09-08 19:53:00,79.0,62.0,-100.00,North,1,4.0,12.0,57,0.00,,,0.00,91.000000,,2013-09-08 23:53:00,
2013-09-08 20:02:00,79.0,62.0,-100.00,North,1,4.0,12.0,57,0.00,,,0.00,91.000000,,2013-09-09 00:02:00,
2013-09-08 20:12:00,79.0,62.0,-100.00,North,1,4.0,12.0,57,0.00,,,0.00,91.000000,,2013-09-09 00:12:00,
2013-09-08 20:42:00,74.0,61.0,-100.00,NNW,339,2.0,10.0,65,0.00,,,0.00,2.000000,,2013-09-09 00:42:00,
2013-09-08 20:52:00,74.0,61.0,-100.00,NNW,339,2.0,10.0,65,0.00,,,0.00,2.000000,,2013-09-09 00:52:00,
2013-09-08 21:01:00,74.0,61.0,-100.00,NNW,339,2.0,10.0,65,0.00,,,0.00,2.000000,,2013-09-09 01:01:00,
2013-09-08 21:12:00,74.0,61.0,-100.00,NNW,339,2.0,10.0,65,0.00,,,0.00,2.000000,,2013-09-09 01:12:00,
2013-09-08 21:42:00,71.0,62.0,-100.00,North,1,1.0,4.0,73,0.00,,,0.00,0.000000,,2013-09-09 01:42:00,
2013-09-08 21:52:00,71.0,62.0,-100.00,North,1,1.0,4.0,73,0.00,,,0.00,0.000000,,2013-09-09 01:52:00,
2013-09-08 22:02:00,71.0,62.0,-100.00,North,1,1.0,4.0,73,0.00,,,0.00,0.000000,,2013-09-09 02:02:00,
2013-09-08 22:11:00,71.0,62.0,-100.00,North,1,1.0,4.0,73,0.00,,,0.00,0.000000,,2013-09-09 02:11:00,
2013-09-08 22:42:00,70.0,61.0,-100.00,NE,54,2.0,6.0,72,0.00,,,0.00,0.000000,,2013-09-09 02:42:00,
2013-09-08 22:53:00,70.0,61.0,-100.00,NE,54,2.0,6.0,72,0.00,,,0.00,0.000000,,2013-09-09 02:53:00,
2013-09-08 23:03:00,70.0,61.0,-100.00,NE,54,2.0,6.0,72,0.00,,,0.00,0.000000,,2013-09-09 03:03:00,
2013-09-08 23:12:00,70.0,61.0,-100.00,NE,54,2.0,6.0,72,0.00,,,0.00,0.000000,,2013-09-09 03:12:00,
2013-09-08 23:13:00,69.0,62.0,-100.00,NNE,19,4.0,6.0,79,0.00,,,0.00,0.000000,,2013-09-09 03:13:00,
2013-09-08 23:44:00,69.0,62.0,-100.00,NNE,19,4.0,6.0,79,0.00,,,0.00,0.000000,,2013-09-09 03:44:00,
2013-09-08 23:55:00,69.0,62.0,-100.00,NNE,19,4.0,6.0,79,0.00,,,0.00,0.000000,,2013-09-09 03:55:00,